Location: Observatoire
(46.1952°N, 5.3391°E)
Time: 22:06:57
(UTC+01:00)

A-11 Canister half - Pass Details

Date: 24 February 2026
Orbit: 1525 x 1683 km, 47.3° (Epoch: 5 March)

Event Time Altitude Azimuth Distance (km) Brightness Sun altitude
Rises 20:01:37 0° 287° (WNW) 4,695 13.1 -18.7°
Reaches altitude 10° 20:04:40 10° 286° (WNW) 3,702 12.2 -19.2°
Maximum altitude 20:13:57 77° 203° (SSW) 1,561 9.0 -20.8°
Enters shadow 20:19:16 30° 122° (ESE) 2,488 9.6 -21.7°
Drops below altitude 10° 20:23:15 10° 119° (ESE) 3,709 - -22.4°
Sets 20:26:19 0° 118° (ESE) 4,705 - -22.9°
